Jauja, Peru
Current Conditions -  °F | °C
As of 6:00 AM on Monday 20 Oct 2014 (Local Time) from SPIM Reporting Station
Overcast Overcast  
Wind Chill: 63°   Ceiling: 1400
Heat Index: 63°   Visibility: 6mi
Dew Point: 57°   Wind: 8mph
Humidity: 82%   Direction: 160°SSE
Pressure: 29.94"   Gusts: NA
Location:  11.8°S, 75.5°W
Report Text: SPIM 201100Z 16007KT 9999 OVC014 17/14 Q1014 NOSIG RMK PP000
Loading
Personal Weather Stations






























Interactive Weather Map
Tropical Storm Tracking
New forecast layout! Learn more

10-Day Weather Forecast

Advertisements
Track Severe Weather on mobile